This is the latest recevied weather packets stored in our database for station/object KB2M. If no packets are shown the sender has not sent any weather packets the latest 10 day(s).
| Time | Temp. | Humidity | Pressure | Rain* | Wind** | Luminosity | Snow |
|---|---|---|---|---|---|---|---|
| 1777890912 | 17.22° C | 92% | 1018.2 hPa | 0 mm | - | - | - |
| 1777890311 | 17.22° C | 92% | 1018.6 hPa | 0 mm | - | - | - |
| 1777889711 | 17.22° C | 92% | 1018.2 hPa | 0 mm | - | - | - |
| 1777889110 | 17.22° C | 91% | 1018.2 hPa | 0 mm | - | - | - |
| 1777888509 | 17.22° C | 91% | 1018.2 hPa | 0 mm | - | - | - |
| 1777887909 | 16.67° C | 90% | 1018.6 hPa | 0 mm | - | - | - |
| 1777887308 | 16.67° C | 89% | 1018.2 hPa | 0 mm | - | - | - |
| 1777886708 | 16.67° C | 88% | 1018.6 hPa | 0 mm | - | - | - |
| 1777886107 | 16.67° C | 87% | 1018.2 hPa | 0 mm | - | - | - |
| 1777885507 | 17.22° C | 86% | 1018.6 hPa | 0 mm | - | - | - |
| 1777884906 | 17.22° C | 86% | 1018.6 hPa | 0 mm | - | - | - |
| 1777884306 | 17.78° C | 85% | 1018.6 hPa | 0 mm | - | - | - |
| 1777883705 | 17.78° C | 84% | 1018.6 hPa | 0 mm | - | - | - |
| 1777883105 | 17.78° C | 84% | 1018.6 hPa | 0 mm | - | - | - |
| 1777882504 | 18.33° C | 83% | 1018.6 hPa | 0 mm | - | - | - |
| 1777881904 | 18.89° C | 78% | 1018.2 hPa | 0 mm | - | - | - |
| 1777881303 | 19.44° C | 69% | 1018.2 hPa | 0 mm | - | - | - |
| 1777880703 | 19.44° C | 69% | 1018.2 hPa | 0 mm | - | - | - |
| 1777880102 | 19.44° C | 67% | 1018.2 hPa | 0 mm | - | - | - |
| 1777879502 | 19.44° C | 71% | 1018.2 hPa | 0 mm | - | - | - |
| 1777878901 | 19.44° C | 69% | 1018.6 hPa | 0 mm | - | - | - |
| 1777878301 | 19.44° C | 69% | 1018.6 hPa | 0 mm | - | - | - |
| 1777877700 | 20° C | 68% | 1018.2 hPa | 0 mm | - | - | - |
| 1777877100 | 20° C | 68% | 1018.6 hPa | 0 mm | - | - | - |
| 1777876499 | 20° C | 66% | 1018.9 hPa | 0 mm | - | - | - |
* Rain latest hour (hover to see other rain measurements)
** Current wind speed in m/s (hover to see current wind gust speed)